Printer-friendly version
Follow the MPC on Twitter Follow the MPC on Facebook The MPC blog
Minor Planet Center

MPEC 2002-V27 : 1993 VD

The following Minor Planet Electronic Circular may be linked-to from your own Web pages, but must not otherwise be redistributed electronically.

A form allowing access to any MPEC is at the bottom of this page.


Read MPEC 2002-V26 Read MPEC 2002-V28


M.P.E.C. 2002-V27                                Issued 2002 Nov. 7, 18:23 UT

     The Minor Planet Electronic Circulars contain information on unusual
         minor planets and routine data on comets.  They are published
   on behalf of Commission 20 of the International Astronomical Union by the
          Minor Planet Center, Smithsonian Astrophysical Observatory,
                          Cambridge, MA 02138, U.S.A.

             Prepared using the Tamkin Foundation Computer Network

                              MPC@CFA.HARVARD.EDU
          URL http://cfa-www.harvard.edu/iau/mpc.html  ISSN 1523-6714

                                    1993 VD

                           Revision to MPEC 1993-V07

Observations:
     J93V00D  C2002 11 06.23593 01 09 52.47 +19 26 33.5          18.0        704
     J93V00D  C2002 11 06.25275 01 09 48.51 +19 25 35.2          18.4        704
     J93V00D  C2002 11 06.26894 01 09 44.65 +19 24 38.2          18.5        704
     J93V00D  C2002 11 06.26946 01 09 44.49 +19 24 36.9          18.0        704
     J93V00D  C2002 11 06.28625 01 09 40.57 +19 23 37.4          17.9        704
     J93V00D  C2002 11 06.30339 01 09 36.53 +19 22 38.2          18.1        704
     J93V00D  C2002 11 06.98878 01 07 19.75 +18 44 50.0                      557
     J93V00D  C2002 11 06.98959 01 07 19.60 +18 44 47.3                      557
     J93V00D  C2002 11 06.99041 01 07 19.43 +18 44 44.8                      557
     J93V00D  C2002 11 06.99123 01 07 19.26 +18 44 42.1                      557
     J93V00D  C2002 11 07.04063 01 07 09.32 +18 42 05.8                      246
     J93V00D  C2002 11 07.04130 01 07 09.22 +18 42 03.9                      246
     J93V00D  C2002 11 07.04200 01 07 09.07 +18 42 01.5                      246
     J93V00D  C2002 11 07.04264 01 07 08.94 +18 41 59.5                      246
     J93V00D  C2002 11 07.04324 01 07 08.82 +18 41 57.7                      246
     J93V00D  C2002 11 07.08610 01 07 06.07 +18 39 59.7          17.8 R      858
     J93V00D  C2002 11 07.08751 01 07 06.05 +18 39 56.6          18.2 R      854
     J93V00D  C2002 11 07.08897 01 07 05.70 +18 39 52.6          18.2 R      854
     J93V00D  C2002 11 07.08935 01 07 05.40 +18 39 49.8          17.5 R      858
     J93V00D  C2002 11 07.09043 01 07 05.51 +18 39 48.7          17.9 R      854
     J93V00D  C2002 11 07.09189 01 07 05.20 +18 39 43.6          17.9 R      854
     J93V00D  C2002 11 07.09264 01 07 04.73 +18 39 39.9          17.5 R      858
     J93V00D  C2002 11 07.10574 01 07 01.47 +18 38 57.5          17.6 R      734
     J93V00D  C2002 11 07.10808 01 07 01.09 +18 38 50.7          17.7 R      734
     J93V00D  C2002 11 07.11006 01 07 00.65 +18 38 44.9          17.9 R      734
     J93V00D  C2002 11 07.21002 01 06 41.01 +18 33 45.7          18.4 V      333
     J93V00D  C2002 11 07.21157 01 06 40.69 +18 33 40.8          18.5 V      333
     J93V00D  C2002 11 07.21308 01 06 40.29 +18 33 36.0          18.6 V      333
     J93V00D  C2002 11 07.21564 01 06 39.94 +18 33 30.0          18.4 R      926
     J93V00D  C2002 11 07.21705 01 06 39.55 +18 33 26.0          18.5 R      926
     J93V00D  C2002 11 07.21846 01 06 39.27 +18 33 21.9          18.3 R      926
     J93V00D  C2002 11 07.23096 01 06 36.44 +18 32 42.7          18.1 R      448
     J93V00D  C2002 11 07.23556 01 06 35.49 +18 32 28.2          18.1 R      448
     J93V00D  C2002 11 07.24032 01 06 34.52 +18 32 13.9          18.1 R      448

Observer details:
246 Klet Observatory-KLENOT.  Observer M. Tichy.  1.06-m KLENOT telescope + CCD.
333 Desert Eagle Observatory.  Observer W. K. Y. Yeung.  0.45-m reflector
    + CCD.
448 Desert Moon Observatory.  Observer B. Stevens.  0.30-m f/6.3
    Schmidt-Cassegrain + CCD.
557 Ondrejov.  Observers P. Pravec, L. Sarounova.  0.65-m f/3.6 reflector + CCD.
704 Lincoln Laboratory ETS, New Mexico.  Observers M. Blythe, F. Shelly,
    M. Bezpalko, R. Huber, L. Manguso, S. Adams, D. Torres, T. Brothers,
    S. Partridge.  Measurers J. Stuart, R. Sayer, J. B. Evans, H. Viggh.  1.0-m
    f/2.15 reflector + CCD.
734 Farpoint Observatory.  Observer G. Hug.  0.30-m Schmidt-Cassegrain + CCD.
854 Sabino Canyon Observatory, Tucson.  Observer J. E. McGaha.  0.30-m f/10
    Schmidt-Cassegrain + CCD.
858 Tebbutt Observatory, Edgewood.  Observer F. B. Zoltowski.  0.3-m f/3.3
    Schmidt-Cassegrain + CCD.
926 Tenagra II Observatory.  Observers M. Schwartz, P. R. Holvorcem.
    Measurer P. R. Holvorcem.  0.81-m f/7 Ritchey-Chretien + CCD.

Orbital elements:
1993 VD                                                              PHA 0.017
Epoch 2002 Nov. 22.0 TT = JDT 2452600.5                 MPC
M 110.53969              (2000.0)            P               Q
n   1.20164864     Peri.  253.62917     -0.23518642     +0.97194872
a   0.8762292      Node     2.76999     -0.87744168     -0.21154742
e   0.5515156      Incl.    2.06345     -0.41807110     -0.10277825
P   0.82           H   21.8           G   0.15           U   7
Residuals in seconds of arc
931109 691 (0.4+  2.7+)   021106 704  0.1+  0.6-    021107 854  0.2+  0.2-
931109 691  0.2-  0.0     021106 704  0.3-  0.1+    021107 858  0.2-  0.2+
931109 691  0.8-  0.7+    021106 557  0.2+  0.1+    021107 734  0.3+  0.3-
931110 691  0.1-  0.5-    021106 557  0.4+  0.0     021107 734  1.7+  0.0
931110 691  0.4+  0.0     021106 557  0.3+  0.1+    021107 734  1.2+  0.2+
931110 691  1.2+  0.0     021106 557  0.3+  0.1+    021107 333  0.1+  1.1-
931110 691  0.0   0.2-    021107 246  0.4-  0.4+    021107 333  0.1+  1.2-
931110 691  0.4-  0.1+    021107 246  0.1+  0.6+    021107 333  1.2-  1.5-
931110 691  0.0   0.3-    021107 246  0.1-  0.5+    021107 926  1.0+  0.2-
931117 691  0.2-  0.4-    021107 246  0.2-  0.5+    021107 926  0.5-  0.1+
931117 691  0.1-  0.3+    021107 246  0.2-  0.6+    021107 926  0.3-  0.3+
931117 691  0.2+  0.3+    021107 858  0.1+  0.2+    021107 448  0.2-  0.2+
021106 704  0.4-  0.1+    021107 854  0.3-  0.4-    021107 448  0.3-  0.2-
021106 704  0.3+  0.4+    021107 854  1.1-  0.0     021107 448  0.3-  0.0
021106 704  0.0   0.2-    021107 858  0.1-  0.2+
021106 704  0.5-  0.3+    021107 854  0.4+  0.5+

Ephemeris:
1993 VD                  a,e,i = 0.88, 0.55, 2                   q = 0.3930
Date    TT    R. A. (2000) Decl.     Delta      r     Elong.  Phase     V
2002 11 02    01 32.68   +25 03.5    0.093    1.081   163.4    15.2    17.6
2002 11 12    00 56.56   +15 29.4    0.183    1.150   148.5    26.7    19.6
2002 11 22    00 50.39   +12 29.6    0.283    1.209   136.6    34.2    20.9
2002 12 02    00 52.94   +11 27.2    0.387    1.257   126.8    38.9    21.8

Timothy B. Spahr             (C) Copyright 2002 MPC           M.P.E.C. 2002-V27

Read MPEC 2002-V26 Read MPEC 2002-V28


MPEC number:

Enter an MPEC number in one of the following forms:

  • 1997-B01 (the full form)
  • J97B01 (the packed version of the full form)
  • B01 (the abbreviated form)

Valid HTML 4.01!